This demonstration page uses our WeatherBlox Daily Observations layout. Learn more.

Left ArrowRight Arrow

36.17497, -115.13722

Hourly Observations for March 2, 2019

Temp ( °F °C ) Dew Point ( °F °C ) Humidity (%) Winds ( mph kmh ) Pressure ( in mb ) Visibility ( mi km ) Precip ( " mm )
12:53 am 00:53 Clear 59 15 38 3.3 46 46 N 3 6 29.85 1011 10 16 0.00 0.00
1:53 am 01:53 Clear 56 13.3 37 2.8 49 49 SW 3 6 29.85 1011 10 16 0.00 0.00
2:53 am 02:53 Clear 55 12.8 39 3.9 55 55 WNW 7 11 29.85 1011 10 16 0.00 0.00
3:53 am 03:53 Clear 56 13.3 40 4.4 55 55 NNW 6 9 29.85 1011 10 16 0.00 0.00
4:53 am 04:53 Partly Cloudy 58 14.4 37 2.8 46 46 N 6 9 29.87 1012 10 16 0.00 0.00
5:53 am 05:53 Cloudy 56 13.3 38 3.3 51 51 S 6 9 29.90 1013 10 16 0.00 0.00
6:53 am 06:53 Cloudy with Light Rain 56 13.3 48 8.9 75 75 S 10 17 29.87 1011 10 16 0.01 0.25
7:53 am 07:53 Cloudy with Light Rain 57 13.9 48 8.9 72 72 S 9 15 29.90 1013 10 16 0.00 0.03
8:53 am 08:53 Cloudy with Light Rain 57 13.9 48 8.9 72 72 SSW 10 17 29.91 1013 10 16 0.01 0.25
9:53 am 09:53 Partly Cloudy 60 15.6 48 8.9 65 65 SSW 14 22 29.88 1012 10 16 0.00 0.03
10:53 am 10:53 Partly Cloudy 65 18.3 46 7.8 51 51 SW 20 31 29.85 1011 10 16 0.00 0.00
11:53 am 11:53 Cloudy 68 20 44 6.7 42 42 W 10 17 29.83 1010 10 16 0.00 0.00
12:53 pm 12:53 Mostly Cloudy 67 19.4 42 5.6 41 41 W 9 15 29.82 1010 10 16 0.00 0.00
1:53 pm 13:53 Mostly Cloudy 68 20 42 5.6 39 39 W 12 19 29.80 1009 10 16 0.00 0.00
2:53 pm 14:53 Cloudy 65 18.3 43 6.1 45 45 WSW 18 30 29.81 1010 10 16 0.00 0.03
3:53 pm 15:53 Sunny 66 18.9 42 5.6 42 42 SW 30 48 29.79 1009 10 16 0.00 0.03
4:53 pm 16:53 Mostly Sunny 65 18.3 43 6.1 45 45 WSW 16 26 29.82 1010 10 16 0.00 0.00
5:53 pm 17:53 Mostly Cloudy 64 17.8 43 6.1 46 46 WSW 17 28 29.84 1010 10 16 0.00 0.00
6:53 pm 18:53 Cloudy 63 17.2 43 6.1 48 48 WSW 16 26 29.86 1011 10 16 0.00 0.00
7:53 pm 19:53 Clear 63 17.2 43 6.1 48 48 W 17 28 29.87 1011 10 16 0.00 0.00
8:53 pm 20:53 Mostly Clear 62 16.7 43 6.1 50 50 W 22 35 29.88 1012 10 16 0.00 0.00
9:53 pm 21:53 Mostly Clear 62 16.7 42 5.6 48 48 W 23 37 29.88 1012 10 16 0.00 0.00
10:53 pm 22:53 Clear 60 15.6 42 5.6 52 52 WSW 13 20 29.89 1012 10 16 0.00 0.00
11:53 pm 23:53 Clear 60 15.6 42 5.6 52 52 SW 14 22 29.89 1012 10 16 0.00 0.00

Powered by AerisWeather